| time (UTC) | temp C | wind direction | speed KPH | gust KPH | rain 1hr cm | rain 24hr cm | rain mn cm | humidity % | barometer mb |
| 20260504175304 | 22 | 250 | 4.8 | 19.3 | 0.00 | 0.00 | 0.00 | 30 | 1006.2 |
| 20260504174804 | 22 | 218 | 6.4 | 14.5 | 0.00 | 0.00 | 0.00 | 31 | 1006.2 |
| 20260504174253 | 22 | 220 | 4.8 | 12.9 | 0.00 | 0.00 | 0.00 | 30 | 1006.3 |
| 20260504173754 | 22 | 209 | 6.4 | 16.1 | 0.00 | 0.00 | 0.00 | 30 | 1006.3 |
| 20260504173250 | 22 | 293 | 4.8 | 9.7 | 0.00 | 0.00 | 0.00 | 31 | 1006.3 |
| 20260504172810 | 21 | 325 | 3.2 | 12.9 | 0.00 | 0.00 | 0.00 | 32 | 1006.3 |
| 20260504172303 | 21 | 246 | 6.4 | 19.3 | 0.00 | 0.00 | 0.00 | 30 | 1006.6 |
| 20260504171801 | 21 | 238 | 8.0 | 12.9 | 0.00 | 0.00 | 0.00 | 30 | 1006.6 |
| 20260504171257 | 21 | 218 | 6.4 | 17.7 | 0.00 | 0.00 | 0.00 | 31 | 1006.6 |
| 20260504170808 | 21 | 245 | 6.4 | 11.3 | 0.00 | 0.00 | 0.00 | 30 | 1006.5 |
| 20260504170257 | 21 | 321 | 3.2 | 12.9 | 0.00 | 0.00 | 0.00 | 31 | 1006.5 |
| 20260504160257 | 20 | 213 | 4.8 | 22.5 | 0.00 | 0.00 | 0.00 | 32 | 1007.3 |
| 20260504150756 | 18 | 232 | 9.7 | 17.7 | 0.00 | 0.00 | 0.00 | 35 | 1007.9 |
| 20260504150302 | 18 | 222 | 3.2 | 20.9 | 0.00 | 0.00 | 0.00 | 36 | 1007.9 |
| 20260504141259 | 16 | 360 | 6.4 | 12.9 | 0.00 | 0.00 | 0.00 | 44 | 1008.4 |
| 20260504140758 | 16 | 360 | 3.2 | 8.0 | 0.00 | 0.00 | 0.00 | 45 | 1008.4 |
| 20260504140306 | 16 | 138 | 1.6 | 8.0 | 0.00 | 0.00 | 0.00 | 47 | 1008.4 |
| 20260504130808 | 12 | 126 | 1.6 | 6.4 | 0.00 | 0.00 | 0.00 | 59 | 1008.9 |
| 20260504130256 | 11 | 360 | 0.0 | 3.2 | 0.00 | 0.00 | 0.00 | 61 | 1008.9 |
| 20260504120257 | 6 | 263 | 1.6 | 4.8 | 0.00 | 0.00 | 0.00 | 76 | 1009.9 |
| 20260504110328 | 3 | 309 | 1.6 | 3.2 | 0.00 | 0.00 | 0.00 | 82 | 1009.9 |
| 20260504100304 | 3 | 234 | 0.0 | 0.0 | 0.00 | 0.00 | 0.00 | 82 | 1009.4 |
| 20260504081755 | 5 | 234 | 0.0 | 0.0 | 0.00 | 0.00 | 0.00 | 77 | 1009.3 |
| 20260504081310 | 5 | 234 | 0.0 | 0.0 | 0.00 | 0.00 | 0.00 | 77 | 1009.3 |
| 20260504080806 | 5 | 234 | 0.0 | 0.0 | 0.00 | 0.00 | 0.00 | 77 | 1009.4 |
| 20260504080257 | 5 | 234 | 0.0 | 0.0 | 0.00 | 0.00 | 0.00 | 77 | 1009.4 |
| 20260504070249 | 5 | 234 | 0.0 | 0.0 | 0.00 | 0.00 | 0.00 | 77 | 1009.1 |
| 20260504050256 | 4 | 234 | 0.0 | 0.0 | 0.00 | 0.00 | 0.00 | 77 | 1009.6 |
| 20260504045813 | 4 | 234 | 0.0 | 0.0 | 0.00 | 0.00 | 0.00 | 77 | 1009.7 |
| 20260504045308 | 4 | 234 | 0.0 | 0.0 | 0.00 | 0.00 | 0.00 | 77 | 1009.7 |
| 20260504044756 | 4 | 234 | 0.0 | 0.0 | 0.00 | 0.00 | 0.00 | 77 | 1009.7 |
| 20260504044314 | 4 | 234 | 0.0 | 0.0 | 0.00 | 0.00 | 0.00 | 77 | 1009.7 |
| 20260504043807 | 4 | 234 | 0.0 | 0.0 | 0.00 | 0.00 | 0.00 | 76 | 1009.7 |
| 20260504043303 | 4 | 234 | 0.0 | 0.0 | 0.00 | 0.00 | 0.00 | 76 | 1009.7 |
| 20260504042759 | 4 | 234 | 0.0 | 0.0 | 0.00 | 0.00 | 0.00 | 75 | 1009.7 |
| 20260504042257 | 4 | 234 | 0.0 | 0.0 | 0.00 | 0.00 | 0.00 | 75 | 1009.5 |
| 20260504041754 | 4 | 234 | 0.0 | 0.0 | 0.00 | 0.00 | 0.00 | 75 | 1009.5 |
| 20260504041307 | 4 | 234 | 0.0 | 0.0 | 0.00 | 0.00 | 0.00 | 75 | 1009.5 |
| 20260504040805 | 4 | 234 | 0.0 | 0.0 | 0.00 | 0.00 | 0.00 | 74 | 1009.5 |
| 20260504040256 | 4 | 234 | 0.0 | 0.0 | 0.00 | 0.00 | 0.00 | 74 | 1009.5 |
| 20260504035832 | 4 | 234 | 0.0 | 0.0 | 0.00 | 0.00 | 0.00 | 74 | 1009.5 |
| 20260504035305 | 4 | 234 | 0.0 | 0.0 | 0.00 | 0.00 | 0.00 | 73 | 1009.4 |
| 20260504034808 | 4 | 234 | 0.0 | 1.6 | 0.00 | 0.00 | 0.00 | 73 | 1009.4 |
| 20260504034302 | 4 | 234 | 0.0 | 1.6 | 0.00 | 0.00 | 0.00 | 73 | 1009.4 |
| 20260504033759 | 4 | 234 | 0.0 | 0.0 | 0.00 | 0.00 | 0.00 | 72 | 1009.3 |
| 20260504033315 | 5 | 234 | 0.0 | 0.0 | 0.00 | 0.00 | 0.00 | 73 | 1009.3 |
| 20260504032753 | 5 | 234 | 0.0 | 0.0 | 0.00 | 0.00 | 0.00 | 72 | 1009.2 |
| 20260504032254 | 5 | 234 | 0.0 | 0.0 | 0.00 | 0.00 | 0.00 | 72 | 1009.2 |
| 20260504031754 | 5 | 234 | 0.0 | 0.0 | 0.00 | 0.00 | 0.00 | 72 | 1009.2 |
| 20260504031305 | 5 | 234 | 0.0 | 0.0 | 0.00 | 0.00 | 0.00 | 71 | 1009.2 |
| 20260504030757 | 5 | 234 | 0.0 | 0.0 | 0.00 | 0.00 | 0.00 | 71 | 1009.1 |
| 20260504030307 | 5 | 234 | 0.0 | 0.0 | 0.00 | 0.00 | 0.00 | 70 | 1009.1 |
| 20260504025819 | 5 | 234 | 0.0 | 0.0 | 0.00 | 0.00 | 0.00 | 70 | 1009.1 |
| 20260504025258 | 5 | 234 | 0.0 | 0.0 | 0.00 | 0.00 | 0.00 | 69 | 1009.1 |
| 20260504024752 | 5 | 234 | 0.0 | 0.0 | 0.00 | 0.00 | 0.00 | 68 | 1009.1 |
| 20260504024252 | 5 | 234 | 0.0 | 0.0 | 0.00 | 0.00 | 0.00 | 68 | 1009.3 |
| 20260504023804 | 5 | 234 | 0.0 | 0.0 | 0.00 | 0.00 | 0.00 | 66 | 1009.3 |
| 20260504023323 | 5 | 234 | 0.0 | 0.0 | 0.00 | 0.00 | 0.00 | 66 | 1009.3 |
| 20260504022759 | 5 | 234 | 0.0 | 0.0 | 0.00 | 0.00 | 0.00 | 65 | 1009.3 |
| 20260504022256 | 6 | 234 | 0.0 | 0.0 | 0.00 | 0.00 | 0.00 | 65 | 1008.9 |
| 20260504021752 | 6 | 234 | 0.0 | 0.0 | 0.00 | 0.00 | 0.00 | 64 | 1008.9 |
| 20260504021305 | 6 | 234 | 0.0 | 3.2 | 0.00 | 0.00 | 0.00 | 64 | 1008.9 |
| 20260504020757 | 6 | 234 | 0.0 | 3.2 | 0.00 | 0.00 | 0.00 | 64 | 1008.9 |
| 20260504020305 | 6 | 234 | 0.0 | 1.6 | 0.00 | 0.00 | 0.00 | 63 | 1008.9 |
| 20260504015758 | 6 | 234 | 0.0 | 1.6 | 0.00 | 0.00 | 0.00 | 62 | 1008.9 |
| 20260504015259 | 6 | 234 | 0.0 | 1.6 | 0.00 | 0.00 | 0.00 | 62 | 1008.8 |
| 20260504014753 | 6 | 234 | 0.0 | 0.0 | 0.00 | 0.00 | 0.00 | 61 | 1008.8 |
| 20260504014254 | 7 | 234 | 0.0 | 0.0 | 0.00 | 0.00 | 0.00 | 59 | 1008.6 |
| 20260504013805 | 7 | 234 | 0.0 | 1.6 | 0.00 | 0.00 | 0.00 | 58 | 1008.6 |
| 20260504013259 | 7 | 234 | 0.0 | 1.6 | 0.00 | 0.00 | 0.00 | 57 | 1008.6 |
| 20260504012802 | 7 | 234 | 0.0 | 1.6 | 0.00 | 0.00 | 0.00 | 57 | 1008.6 |
| 20260504012259 | 7 | 234 | 0.0 | 0.0 | 0.00 | 0.00 | 0.00 | 56 | 1008.5 |
| 20260504011802 | 7 | 234 | 0.0 | 0.0 | 0.00 | 0.00 | 0.00 | 55 | 1008.5 |
| 20260504011304 | 8 | 234 | 0.0 | 0.0 | 0.00 | 0.00 | 0.00 | 54 | 1008.5 |
| 20260504010758 | 8 | 234 | 0.0 | 0.0 | 0.00 | 0.00 | 0.00 | 52 | 1008.3 |
| 20260504010311 | 8 | 234 | 0.0 | 1.6 | 0.00 | 0.00 | 0.00 | 52 | 1008.3 |
| 20260504005808 | 8 | 234 | 0.0 | 1.6 | 0.00 | 0.00 | 0.00 | 51 | 1008.3 |
| 20260504005311 | 8 | 234 | 0.0 | 0.0 | 0.00 | 0.00 | 0.00 | 51 | 1007.9 |
| 20260504004804 | 9 | 234 | 0.0 | 0.0 | 0.00 | 0.00 | 0.00 | 50 | 1007.9 |
| 20260504004258 | 9 | 234 | 0.0 | 0.0 | 0.00 | 0.00 | 0.00 | 48 | 1007.9 |
| 20260504003810 | 9 | 234 | 0.0 | 0.0 | 0.00 | 0.00 | 0.00 | 46 | 1007.8 |
| 20260504003307 | 10 | 234 | 0.0 | 0.0 | 0.00 | 0.00 | 0.00 | 46 | 1007.8 |
| 20260504002804 | 10 | 234 | 0.0 | 0.0 | 0.00 | 0.00 | 0.00 | 47 | 1007.8 |
| 20260504002303 | 10 | 234 | 0.0 | 0.0 | 0.00 | 0.00 | 0.00 | 44 | 1007.5 |
| 20260504001802 | 10 | 234 | 0.0 | 0.0 | 0.00 | 0.00 | 0.00 | 44 | 1007.5 |
| 20260504001320 | 10 | 234 | 0.0 | 0.0 | 0.00 | 0.00 | 0.00 | 42 | 1007.5 |
| 20260504000756 | 11 | 234 | 0.0 | 0.0 | 0.00 | 0.00 | 0.00 | 40 | 1007.4 |
| 20260504000316 | 11 | 233 | 0.0 | 0.0 | 0.00 | 0.00 | 0.00 | 40 | 1007.4 |
| 20260503235750 | 11 | 233 | 0.0 | 0.0 | 0.00 | 0.00 | 0.00 | 38 | 1007.4 |
| 20260503235301 | 11 | 232 | 0.0 | 0.0 | 0.00 | 0.00 | 0.00 | 39 | 1007.4 |
| 20260503234756 | 11 | 360 | 0.0 | 0.0 | 0.00 | 0.00 | 0.00 | 38 | 1007.4 |
| 20260503234331 | 11 | 360 | 0.0 | 3.2 | 0.00 | 0.00 | 0.00 | 38 | 1007.4 |
| 20260503233752 | 11 | 360 | 0.0 | 4.8 | 0.00 | 0.00 | 0.00 | 37 | 1007.3 |
| 20260503233251 | 11 | 360 | 1.6 | 4.8 | 0.00 | 0.00 | 0.00 | 36 | 1007.3 |
| 20260503232831 | 11 | 360 | 0.0 | 8.0 | 0.00 | 0.00 | 0.00 | 36 | 1007.3 |
| 20260503232311 | 11 | 360 | 0.0 | 8.0 | 0.00 | 0.00 | 0.00 | 36 | 1007.3 |
| 20260503231804 | 11 | 360 | 1.6 | 6.4 | 0.00 | 0.00 | 0.00 | 36 | 1007.3 |
| 20260503231300 | 12 | 360 | 1.6 | 4.8 | 0.00 | 0.00 | 0.00 | 37 | 1007.3 |
| 20260503230753 | 12 | 360 | 1.6 | 6.4 | 0.00 | 0.00 | 0.00 | 37 | 1007.3 |
| 20260503230301 | 12 | 360 | 3.2 | 6.4 | 0.00 | 0.00 | 0.00 | 36 | 1007.3 |
| 20260503225757 | 12 | 360 | 1.6 | 3.2 | 0.00 | 0.00 | 0.00 | 37 | 1007.3 |
| 20260503225313 | 12 | 360 | 1.6 | 8.0 | 0.00 | 0.00 | 0.00 | 36 | 1007.3 |
| 20260503224809 | 12 | 360 | 1.6 | 8.0 | 0.00 | 0.00 | 0.00 | 36 | 1007.3 |
| 20260503224306 | 12 | 360 | 3.2 | 6.4 | 0.00 | 0.00 | 0.00 | 37 | 1007.3 |
| 20260503223803 | 12 | 360 | 0.0 | 4.8 | 0.00 | 0.00 | 0.00 | 38 | 1007.3 |
| 20260503223254 | 12 | 360 | 0.0 | 4.8 | 0.00 | 0.00 | 0.00 | 35 | 1007.3 |
| 20260503222754 | 12 | 360 | 0.0 | 3.2 | 0.00 | 0.00 | 0.00 | 37 | 1007.3 |
| 20260503222252 | 12 | 360 | 0.0 | 6.4 | 0.00 | 0.00 | 0.00 | 36 | 1007.3 |
| 20260503221801 | 12 | 360 | 1.6 | 6.4 | 0.00 | 0.00 | 0.00 | 35 | 1007.3 |
| 20260503221303 | 12 | 360 | 1.6 | 6.4 | 0.00 | 0.00 | 0.00 | 35 | 1007.3 |
| 20260503220800 | 12 | 360 | 1.6 | 6.4 | 0.00 | 0.00 | 0.00 | 35 | 1007.3 |
| 20260503220314 | 12 | 360 | 1.6 | 6.4 | 0.00 | 0.00 | 0.00 | 36 | 1007.3 |
| 20260503215809 | 12 | 360 | 1.6 | 3.2 | 0.00 | 0.00 | 0.00 | 37 | 1007.3 |
| 20260503215249 | 12 | 360 | 1.6 | 11.3 | 0.00 | 0.00 | 0.00 | 37 | 1007.3 |
| 20260503214753 | 12 | 360 | 4.8 | 11.3 | 0.00 | 0.00 | 0.00 | 37 | 1007.3 |
| 20260503214311 | 12 | 360 | 1.6 | 11.3 | 0.00 | 0.00 | 0.00 | 37 | 1007.3 |
| 20260503213750 | 12 | 360 | 1.6 | 8.0 | 0.00 | 0.00 | 0.00 | 37 | 1007.3 |
| 20260503213255 | 12 | 360 | 1.6 | 11.3 | 0.00 | 0.00 | 0.00 | 36 | 1007.3 |
| 20260503212829 | 12 | 360 | 3.2 | 8.0 | 0.00 | 0.00 | 0.00 | 36 | 1007.3 |
| 20260503212308 | 12 | 360 | 1.6 | 4.8 | 0.00 | 0.00 | 0.00 | 37 | 1007.3 |
| 20260503211820 | 12 | 360 | 1.6 | 8.0 | 0.00 | 0.00 | 0.00 | 37 | 1007.3 |
| 20260503211254 | 12 | 360 | 3.2 | 16.1 | 0.00 | 0.00 | 0.00 | 36 | 1007.1 |
| 20260503210806 | 12 | 360 | 4.8 | 16.1 | 0.00 | 0.00 | 0.00 | 37 | 1007.1 |
| 20260503210259 | 12 | 360 | 1.6 | 8.0 | 0.00 | 0.00 | 0.00 | 36 | 1007.1 |
| 20260503205812 | 12 | 360 | 1.6 | 8.0 | 0.00 | 0.00 | 0.00 | 36 | 1007.1 |
| 20260503205305 | 12 | 360 | 3.2 | 8.0 | 0.00 | 0.00 | 0.00 | 36 | 1007.0 |
| 20260503204758 | 12 | 360 | 3.2 | 11.3 | 0.00 | 0.00 | 0.00 | 36 | 1007.0 |
| 20260503204312 | 12 | 360 | 3.2 | 11.3 | 0.00 | 0.00 | 0.00 | 36 | 1007.0 |
| 20260503203807 | 12 | 360 | 3.2 | 9.7 | 0.00 | 0.00 | 0.00 | 37 | 1007.1 |
| 20260503203301 | 12 | 360 | 3.2 | 16.1 | 0.00 | 0.00 | 0.00 | 34 | 1007.1 |
| 20260503202802 | 12 | 360 | 1.6 | 16.1 | 0.00 | 0.00 | 0.00 | 37 | 1007.1 |
| 20260503202257 | 12 | 360 | 1.6 | 6.4 | 0.00 | 0.00 | 0.00 | 36 | 1006.9 |
| 20260503201758 | 12 | 360 | 3.2 | 6.4 | 0.00 | 0.00 | 0.00 | 35 | 1006.9 |
| 20260503201253 | 12 | 360 | 1.6 | 6.4 | 0.00 | 0.00 | 0.00 | 36 | 1006.9 |
| 20260503200753 | 12 | 360 | 3.2 | 12.9 | 0.00 | 0.00 | 0.00 | 35 | 1006.9 |
| 20260503200306 | 12 | 360 | 3.2 | 12.9 | 0.00 | 0.00 | 0.00 | 36 | 1006.9 |
| 20260503195759 | 12 | 360 | 1.6 | 8.0 | 0.00 | 0.00 | 0.00 | 36 | 1006.9 |
| 20260503195253 | 12 | 360 | 1.6 | 8.0 | 0.00 | 0.00 | 0.00 | 37 | 1007.1 |
| 20260503194807 | 12 | 360 | 3.2 | 8.0 | 0.00 | 0.00 | 0.00 | 37 | 1007.1 |
| 20260503194303 | 12 | 360 | 3.2 | 8.0 | 0.00 | 0.00 | 0.00 | 36 | 1007.1 |
| 20260503193757 | 11 | 360 | 1.6 | 8.0 | 0.00 | 0.00 | 0.00 | 38 | 1007.2 |
| 20260503193312 | 11 | 360 | 1.6 | 11.3 | 0.00 | 0.00 | 0.00 | 38 | 1007.2 |
| 20260503192757 | 11 | 360 | 1.6 | 11.3 | 0.00 | 0.00 | 0.00 | 38 | 1007.2 |
| 20260503192257 | 11 | 360 | 1.6 | 6.4 | 0.00 | 0.00 | 0.00 | 38 | 1007.3 |
| 20260503191754 | 11 | 360 | 1.6 | 11.3 | 0.00 | 0.00 | 0.00 | 37 | 1007.3 |
| 20260503191308 | 11 | 360 | 3.2 | 11.3 | 0.00 | 0.00 | 0.00 | 37 | 1007.3 |
| 20260503190757 | 11 | 360 | 3.2 | 11.3 | 0.00 | 0.00 | 0.00 | 36 | 1007.1 |
| 20260503190308 | 11 | 360 | 4.8 | 9.7 | 0.00 | 0.00 | 0.00 | 37 | 1007.1 |
| 20260503185807 | 11 | 360 | 4.8 | 8.0 | 0.00 | 0.00 | 0.00 | 36 | 1007.1 |
| 20260503185259 | 11 | 360 | 3.2 | 8.0 | 0.00 | 0.00 | 0.00 | 38 | 1006.9 |
| 20260503184756 | 11 | 360 | 1.6 | 11.3 | 0.00 | 0.00 | 0.00 | 38 | 1006.9 |
| 20260503184259 | 11 | 360 | 1.6 | 11.3 | 0.00 | 0.00 | 0.00 | 38 | 1006.9 |
| 20260503183803 | 11 | 360 | 3.2 | 8.0 | 0.00 | 0.00 | 0.00 | 38 | 1006.9 |
| 20260503183302 | 11 | 360 | 1.6 | 6.4 | 0.00 | 0.00 | 0.00 | 39 | 1006.9 |
| 20260503182806 | 12 | 360 | 1.6 | 8.0 | 0.00 | 0.00 | 0.00 | 39 | 1006.9 |
| 20260503182258 | 12 | 360 | 3.2 | 8.0 | 0.00 | 0.00 | 0.00 | 39 | 1007.0 |
| 20260503181758 | 12 | 360 | 3.2 | 8.0 | 0.00 | 0.00 | 0.00 | 38 | 1007.0 |
| 20260503181330 | 12 | 360 | 4.8 | 8.0 | 0.00 | 0.00 | 0.00 | 39 | 1007.0 |
| 20260503180801 | 12 | 360 | 1.6 | 9.7 | 0.00 | 0.00 | 0.00 | 38 | 1007.0 |
| 20260503180316 | 12 | 360 | 3.2 | 8.0 | 0.00 | 0.00 | 0.00 | 38 | 1007.0 |
| 20260503175810 | 12 | 360 | 3.2 | 9.7 | 0.00 | 0.00 | 0.00 | 37 | 1007.0 |